2021/01/18 23:30:42+0000,-42.15,-46.44,-33.25,-45.56,-55.49,-56.75
2021/01/18 23:31:42+0000,-41.89,-49.15,-33.53,-47.16,-55.45,-56.50
2021/01/18 23:32:34+0000,-41.32,-49.11,-33.52,-51.86,-55.72,-55.97
2021/01/18 23:33:26+0000,-41.90,-49.07,-32.67,-44.40,-55.67,-56.60
2021/01/18 23:34:18+0000,-42.42,-49.24,-32.86,-47.41,-55.85,-56.17
2021/01/18 23:35:10+0000,-41.88,-47.99,-32.92,-48.66,-55.44,-55.69
2021/01/18 23:36:02+0000,-41.56,-47.63,-32.74,-47.39,-55.74,-56.36
2021/01/18 23:36:54+0000,-41.48,-47.59,-32.66,-46.86,-55.85,-55.64
2021/01/18 23:37:46+0000,-41.58,-48.43,-33.73,-48.78,-55.83,-56.13
2021/01/18 23:38:38+0000,-41.01,-49.23,-33.34,-49.16,-55.48,-55.99
2021/01/18 23:39:30+0000,-42.00,-48.91,-33.29,-47.47,-55.89,-55.78
2021/01/18 23:40:23+0000,-42.13,-49.47,-33.03,-48.64,-55.88,-56.50
2021/01/18 23:41:23+0000,-42.27,-50.04,-33.44,-45.91,-55.59,-55.85
2021/01/18 23:42:15+0000,-41.91,-48.96,-33.46,-49.59,-55.34,-55.92
2021/01/18 23:43:07+0000,-41.92,-50.68,-33.55,-48.57,-55.50,-55.97
2021/01/18 23:43:59+0000,-41.82,-47.78,-33.19,-47.67,-55.71,-55.36
2021/01/18 23:44:51+0000,-41.27,-50.51,-33.70,-48.44,-55.70,-55.26
2021/01/18 23:45:43+0000,-41.60,-49.78,-33.63,-48.21,-55.49,-55.80
2021/01/18 23:46:35+0000,-41.45,-47.91,-33.38,-52.05,-55.37,-55.54
2021/01/18 23:47:27+0000,-41.13,-47.15,-33.47,-44.22,-55.68,-55.80
2021/01/18 23:48:19+0000,-41.10,-48.55,-33.59,-51.89,-55.35,-55.22
2021/01/18 23:49:11+0000,-40.64,-48.32,-33.34,-45.53,-55.04,-55.49
2021/01/18 23:50:04+0000,-40.41,-47.96,-33.32,-51.80,-55.53,-55.70
2021/01/18 23:51:04+0000,-40.47,-48.28,-33.07,-49.63,-55.50,-55.87
2021/01/18 23:51:56+0000,-40.78,-47.42,-32.66,-44.99,-55.64,-56.17
2021/01/18 23:52:48+0000,-40.63,-49.85,-33.69,-46.82,-54.58,-55.56
2021/01/18 23:53:40+0000,-41.16,-49.40,-33.48,-48.04,-55.71,-55.99
2021/01/18 23:54:32+0000,-41.19,-47.01,-33.30,-42.66,-55.63,-55.74
2021/01/18 23:55:24+0000,-41.70,-47.95,-33.12,-42.34,-55.11,-55.86
2021/01/18 23:56:16+0000,-41.30,-49.30,-33.23,-48.80,-55.40,-56.18
2021/01/18 23:57:08+0000,-41.32,-49.46,-33.36,-48.06,-55.55,-55.83
2021/01/18 23:58:00+0000,-41.40,-45.85,-33.55,-41.30,-55.48,-55.96
2021/01/18 23:58:52+0000,-40.42,-50.82,-33.31,-47.03,-55.08,-55.74
2021/01/18 23:59:45+0000,-40.78,-48.94,-33.03,-49.62,-55.19,-55.76
2021/01/19 00:00:37+0000,-40.77,-49.21,-33.52,-48.17,-55.22,-55.97
2021/01/19 00:01:41+0000,-40.99,-49.10,-33.54,-48.06,-55.46,-55.90
2021/01/19 00:02:33+0000,-40.82,-47.36,-33.59,-50.90,-55.32,-55.87
2021/01/19 00:03:25+0000,-41.55,-47.59,-32.91,-44.72,-55.86,-55.83
2021/01/19 00:04:17+0000,-41.99,-48.18,-32.74,-50.31,-55.11,-55.02
2021/01/19 00:05:09+0000,-41.68,-47.52,-33.35,-47.81,-55.24,-55.53
2021/01/19 00:06:01+0000,-42.01,-47.12,-33.43,-45.65,-55.23,-56.16
2021/01/19 00:06:53+0000,-42.63,-47.29,-33.29,-43.73,-55.30,-55.95
2021/01/19 00:07:45+0000,-42.11,-48.37,-33.64,-48.92,-55.05,-56.19
2021/01/19 00:08:37+0000,-41.42,-49.88,-32.85,-48.67,-54.81,-55.97
2021/01/19 00:09:29+0000,-42.21,-48.24,-33.09,-44.01,-55.08,-56.29
2021/01/19 00:10:22+0000,-41.89,-49.25,-33.28,-42.13,-54.79,-56.05
2021/01/19 00:11:22+0000,-42.36,-49.76,-33.25,-45.70,-55.21,-55.58
2021/01/19 00:12:14+0000,-42.33,-48.63,-31.55,-48.04,-55.23,-55.45
2021/01/19 00:13:06+0000,-42.27,-49.98,-32.90,-47.80,-55.17,-55.04
2021/01/19 00:13:58+0000,-41.75,-46.71,-34.10,-44.09,-55.27,-55.72
2021/01/19 00:14:50+0000,-42.12,-49.47,-32.64,-49.50,-55.35,-55.17
2021/01/19 00:15:42+0000,-42.35,-48.48,-33.63,-49.44,-55.62,-55.97
2021/01/19 00:16:34+0000,-41.48,-47.88,-32.99,-50.37,-55.32,-55.66
2021/01/19 00:17:26+0000,-41.70,-48.03,-33.11,-44.79,-55.20,-55.46
2021/01/19 00:18:18+0000,-41.51,-49.37,-33.24,-51.16,-55.73,-55.53
2021/01/19 00:19:10+0000,-42.28,-48.45,-33.10,-50.57,-55.61,-55.84
2021/01/19 00:20:03+0000,-42.76,-46.85,-32.49,-49.01,-56.12,-55.81
2021/01/19 00:21:02+0000,-41.24,-48.16,-32.91,-47.16,-56.08,-55.54
2021/01/19 00:21:54+0000,-41.97,-47.32,-32.17,-44.82,-55.36,-55.92
2021/01/19 00:22:46+0000,-41.68,-48.93,-32.28,-48.36,-55.75,-55.56
2021/01/19 00:23:39+0000,-41.49,-48.17,-33.20,-47.06,-55.93,-55.39
2021/01/19 00:24:31+0000,-41.75,-48.32,-33.69,-44.02,-54.83,-55.94
2021/01/19 00:25:23+0000,-41.40,-50.12,-33.37,-43.79,-55.38,-55.31
2021/01/19 00:26:15+0000,-42.32,-47.95,-32.89,-48.82,-55.67,-55.73
2021/01/19 00:27:07+0000,-40.91,-49.61,-33.18,-48.93,-55.89,-55.99
2021/01/19 00:27:59+0000,-41.45,-48.88,-34.18,-45.37,-55.47,-55.80
2021/01/19 00:28:51+0000,-41.80,-50.33,-34.43,-43.91,-55.80,-55.36
2021/01/19 00:29:43+0000,-40.42,-46.93,-33.46,-49.53,-55.10,-55.41
2021/01/19 00:30:35+0000,-40.32,-47.57,-33.92,-49.65,-55.43,-56.02
2021/01/19 00:31:37+0000,-41.13,-50.33,-33.53,-49.22,-55.20,-55.85
2021/01/19 00:32:29+0000,-40.59,-45.41,-33.96,-46.91,-55.46,-55.51
2021/01/19 00:33:21+0000,-40.39,-48.61,-33.40,-49.09,-55.62,-55.74
2021/01/19 00:34:13+0000,-36.15,-47.31,-33.61,-49.09,-55.58,-55.60
2021/01/19 00:35:05+0000,-39.86,-46.63,-33.62,-49.99,-54.75,-55.57
2021/01/19 00:35:57+0000,-38.16,-46.44,-33.46,-48.41,-54.81,-55.77
2021/01/19 00:36:49+0000,-40.86,-45.99,-33.64,-50.38,-55.00,-55.49
2021/01/19 00:37:41+0000,-39.18,-48.01,-33.75,-49.95,-55.08,-55.06
2021/01/19 00:38:34+0000,-39.57,-43.44,-33.70,-50.06,-55.12,-55.58
2021/01/19 00:39:26+0000,-37.01,-44.67,-33.21,-50.54,-54.61,-55.35
2021/01/19 00:40:18+0000,-40.22,-45.09,-33.06,-49.76,-54.40,-55.31
2021/01/19 00:41:18+0000,-40.77,-42.91,-32.74,-50.31,-54.60,-54.87
2021/01/19 00:42:10+0000,-40.58,-43.65,-34.18,-50.22,-55.24,-55.19
2021/01/19 00:43:02+0000,-41.16,-45.41,-33.54,-49.87,-54.80,-54.88
2021/01/19 00:43:54+0000,-40.07,-48.49,-32.74,-50.31,-54.60,-54.95
2021/01/19 00:44:46+0000,-40.35,-43.19,-33.15,-49.73,-55.18,-55.82
2021/01/19 00:45:38+0000,-40.27,-50.88,-33.17,-48.95,-54.48,-55.80
2021/01/19 00:46:30+0000,-40.59,-44.51,-33.86,-50.33,-55.18,-55.41
2021/01/19 00:47:22+0000,-38.96,-50.90,-33.57,-50.58,-54.92,-55.16
2021/01/19 00:48:14+0000,-39.26,-47.25,-33.71,-48.74,-55.08,-55.47
2021/01/19 00:49:06+0000,-39.62,-49.60,-33.43,-48.63,-54.89,-55.10
2021/01/19 00:49:59+0000,-39.66,-44.54,-33.47,-49.80,-54.57,-55.02
2021/01/19 00:50:51+0000,-34.42,-46.05,-33.19,-50.30,-54.86,-55.85
2021/01/19 00:51:54+0000,-35.37,-48.95,-32.93,-49.59,-54.66,-56.00
2021/01/19 00:52:46+0000,-40.15,-46.39,-33.02,-49.24,-54.89,-55.76
2021/01/19 00:53:38+0000,-39.53,-49.88,-27.13,-48.90,-54.17,-55.18
2021/01/19 00:54:30+0000,-39.08,-47.59,-34.17,-49.59,-54.91,-55.38
2021/01/19 00:55:22+0000,-39.73,-50.28,-32.74,-49.46,-54.72,-55.68
2021/01/19 00:56:14+0000,-38.66,-46.36,-33.38,-50.15,-54.70,-55.40
2021/01/19 00:57:06+0000,-39.08,-46.35,-26.53,-50.08,-54.47,-55.69
2021/01/19 00:57:58+0000,-39.56,-47.68,-33.60,-50.08,-49.86,-55.03
2021/01/19 00:58:50+0000,-40.23,-45.36,-32.81,-49.74,-55.02,-55.69
2021/01/19 00:59:42+0000,-39.11,-46.31,-26.44,-49.73,-54.40,-55.54
2021/01/19 01:00:35+0000,-39.48,-45.11,-27.21,-49.99,-55.41,-55.50
2021/01/19 01:01:33+0000,-38.89,-46.60,-33.68,-50.68,-54.88,-55.58
2021/01/19 01:02:25+0000,-39.28,-46.45,-26.46,-50.08,-53.91,-55.06
2021/01/19 01:03:17+0000,-39.88,-45.74,-26.22,-49.60,-54.56,-55.50
2021/01/19 01:04:09+0000,-38.68,-46.01,-33.35,-50.43,-54.52,-54.93
2021/01/19 01:05:01+0000,-39.71,-45.15,-33.17,-50.18,-54.01,-55.23
2021/01/19 01:05:53+0000,-39.65,-45.02,-27.05,-49.70,-54.16,-55.50
2021/01/19 01:06:45+0000,-39.51,-45.95,-26.63,-49.46,-54.54,-55.70
2021/01/19 01:07:37+0000,-39.76,-47.55,-33.61,-49.07,-55.28,-55.55
2021/01/19 01:08:29+0000,-40.38,-43.62,-32.77,-50.30,-55.05,-55.58
2021/01/19 01:09:21+0000,-40.01,-49.73,-26.57,-50.72,-55.25,-55.61
2021/01/19 01:10:15+0000,-40.48,-45.21,-27.22,-50.34,-55.14,-56.18
2021/01/19 01:11:15+0000,-39.77,-47.37,-27.03,-49.49,-54.08,-55.52
2021/01/19 01:12:07+0000,-39.94,-49.45,-33.58,-49.77,-54.79,-55.53
2021/01/19 01:12:59+0000,-40.59,-45.64,-33.63,-50.14,-54.31,-55.68
2021/01/19 01:13:51+0000,-38.37,-49.62,-33.49,-49.94,-54.69,-55.58
2021/01/19 01:14:43+0000,-39.33,-47.25,-34.24,-50.15,-54.77,-55.07
2021/01/19 01:15:35+0000,-39.09,-49.81,-34.08,-50.45,-54.76,-55.09
2021/01/19 01:16:27+0000,-38.19,-47.79,-33.74,-49.94,-55.09,-55.76
2021/01/19 01:17:19+0000,-36.85,-47.61,-33.59,-50.84,-55.00,-55.95
2021/01/19 01:18:11+0000,-39.37,-47.68,-34.07,-49.74,-55.13,-55.10
2021/01/19 01:19:03+0000,-39.11,-43.18,-34.28,-50.20,-54.79,-55.25
2021/01/19 01:19:55+0000,-35.65,-45.80,-33.38,-50.11,-54.50,-55.40
2021/01/19 01:20:48+0000,-36.35,-47.16,-33.63,-51.14,-55.16,-55.39
2021/01/19 01:21:47+0000,-38.30,-46.01,-33.26,-50.58,-54.21,-55.31
2021/01/19 01:22:39+0000,-38.80,-47.29,-33.96,-50.46,-55.13,-55.36
2021/01/19 01:23:32+0000,-38.87,-47.24,-34.03,-50.40,-54.93,-55.05
2021/01/19 01:24:24+0000,-38.19,-48.18,-33.25,-50.14,-54.29,-55.60
2021/01/19 01:25:16+0000,-37.60,-43.88,-33.38,-50.98,-54.74,-55.78
2021/01/19 01:26:08+0000,-37.41,-47.41,-33.08,-50.25,-54.71,-55.37
2021/01/19 01:27:00+0000,-38.86,-47.48,-32.70,-50.13,-54.75,-55.46
2021/01/19 01:27:52+0000,-38.21,-49.31,-34.93,-50.33,-54.59,-55.84
2021/01/19 01:28:44+0000,-36.93,-46.15,-34.17,-50.25,-54.03,-55.70
2021/01/19 01:29:36+0000,-37.85,-49.67,-33.83,-50.12,-55.20,-55.20
2021/01/19 01:30:28+0000,-37.03,-47.20,-34.45,-50.38,-54.93,-55.50
2021/01/19 01:31:28+0000,-38.81,-46.97,-34.72,-50.92,-54.50,-56.05
2021/01/19 01:32:20+0000,-38.66,-48.93,-33.14,-50.77,-53.35,-55.72
2021/01/19 01:33:12+0000,-38.42,-47.58,-34.51,-50.56,-53.49,-55.87
2021/01/19 01:34:04+0000,-37.64,-45.32,-34.20,-51.37,-53.59,-52.69
2021/01/19 01:34:56+0000,-39.07,-47.81,-33.83,-50.56,-54.48,-53.49
2021/01/19 01:35:48+0000,-37.47,-47.60,-34.24,-50.90,-53.74,-53.40
2021/01/19 01:36:40+0000,-39.43,-46.48,-34.17,-50.35,-54.17,-54.28
2021/01/19 01:37:33+0000,-37.72,-46.01,-34.65,-49.96,-54.17,-54.10
2021/01/19 01:38:25+0000,-38.80,-46.88,-33.64,-50.70,-54.01,-53.90
2021/01/19 01:39:17+0000,-38.61,-45.95,-33.95,-50.88,-54.65,-54.33
2021/01/19 01:40:09+0000,-38.81,-48.15,-33.98,-50.49,-53.87,-54.33
2021/01/19 01:41:09+0000,-38.66,-46.77,-33.77,-50.22,-54.76,-54.88
2021/01/19 01:42:01+0000,-38.09,-50.11,-33.42,-51.54,-54.16,-54.69
2021/01/19 01:42:53+0000,-37.99,-49.63,-34.07,-50.85,-54.47,-55.61
2021/01/19 01:43:45+0000,-38.73,-47.76,-34.48,-50.31,-53.67,-54.81
2021/01/19 01:44:37+0000,-38.57,-50.88,-33.65,-51.40,-54.22,-55.22
2021/01/19 01:45:29+0000,-34.60,-48.63,-34.08,-50.41,-54.45,-55.12
2021/01/19 01:46:21+0000,-34.72,-50.58,-34.50,-50.97,-54.53,-55.49
2021/01/19 01:47:13+0000,-38.46,-45.27,-34.07,-50.92,-54.92,-55.56
2021/01/19 01:48:05+0000,-37.38,-49.71,-34.65,-50.77,-54.15,-55.22
2021/01/19 01:48:57+0000,-37.11,-49.70,-33.85,-50.91,-54.47,-55.08
2021/01/19 01:49:50+0000,-36.42,-46.73,-33.64,-50.73,-54.27,-55.13
2021/01/19 01:50:42+0000,-39.46,-45.98,-34.14,-50.42,-54.55,-55.39
2021/01/19 01:51:43+0000,-39.37,-46.57,-33.74,-50.45,-54.25,-54.06
2021/01/19 01:52:35+0000,-38.11,-48.75,-34.10,-50.07,-54.11,-54.28
2021/01/19 01:53:27+0000,-39.09,-48.82,-33.94,-50.53,-54.45,-54.40
2021/01/19 01:54:19+0000,-38.73,-46.55,-34.00,-50.67,-54.00,-54.40
2021/01/19 01:55:11+0000,-38.95,-46.10,-34.07,-51.23,-54.68,-53.00
2021/01/19 01:56:03+0000,-39.58,-49.49,-34.58,-50.22,-54.11,-53.33
2021/01/19 01:56:55+0000,-33.80,-48.11,-33.85,-50.13,-54.37,-54.06
2021/01/19 01:57:47+0000,-40.85,-47.52,-34.74,-50.43,-53.65,-54.32
2021/01/19 01:58:39+0000,-39.32,-48.68,-34.18,-50.45,-54.28,-53.58
2021/01/19 01:59:31+0000,-40.06,-49.12,-34.25,-50.66,-54.08,-54.03
2021/01/19 02:00:24+0000,-38.30,-49.89,-33.68,-50.71,-53.83,-54.12
2021/01/19 02:01:22+0000,-39.18,-49.22,-33.98,-50.57,-54.01,-53.59
2021/01/19 02:02:14+0000,-39.90,-50.49,-33.45,-50.02,-53.82,-53.63
2021/01/19 02:03:06+0000,-38.94,-50.69,-33.84,-50.12,-54.54,-53.87
2021/01/19 02:03:58+0000,-39.20,-49.58,-33.88,-50.77,-54.09,-53.50
2021/01/19 02:04:50+0000,-38.14,-51.14,-33.99,-50.80,-53.78,-53.84
2021/01/19 02:05:42+0000,-37.56,-50.44,-33.77,-50.62,-54.12,-53.87
2021/01/19 02:06:34+0000,-38.08,-50.71,-34.13,-50.23,-54.39,-54.48
2021/01/19 02:07:26+0000,-37.71,-50.90,-34.17,-50.33,-54.31,-54.14
2021/01/19 02:08:18+0000,-37.70,-49.47,-33.35,-50.33,-53.52,-53.73
2021/01/19 02:09:11+0000,-37.64,-50.21,-33.39,-50.71,-53.60,-54.92
2021/01/19 02:10:03+0000,-37.85,-49.87,-33.96,-50.58,-53.66,-54.03
2021/01/19 02:11:02+0000,-37.63,-48.40,-34.07,-50.89,-53.97,-53.63
2021/01/19 02:11:54+0000,-38.80,-50.63,-34.02,-50.68,-54.56,-53.82
2021/01/19 02:12:47+0000,-37.24,-49.77,-33.52,-50.73,-54.51,-54.43
2021/01/19 02:13:39+0000,-37.29,-50.24,-33.75,-50.80,-53.69,-54.18
2021/01/19 02:14:31+0000,-38.75,-50.08,-34.13,-50.80,-54.34,-53.36
2021/01/19 02:15:23+0000,-38.32,-49.97,-33.96,-50.92,-53.93,-54.13
2021/01/19 02:16:15+0000,-37.86,-49.07,-33.37,-50.89,-54.10,-54.66
2021/01/19 02:17:07+0000,-38.19,-49.70,-33.73,-50.73,-54.59,-54.07
2021/01/19 02:17:59+0000,-37.58,-48.43,-33.71,-50.21,-53.90,-53.47
2021/01/19 02:18:51+0000,-38.34,-50.14,-33.59,-50.37,-54.21,-54.68
2021/01/19 02:19:43+0000,-38.26,-49.63,-34.13,-50.86,-54.01,-54.27
2021/01/19 02:20:36+0000,-37.99,-50.10,-33.86,-51.52,-54.33,-54.71
2021/01/19 02:21:36+0000,-36.85,-49.71,-33.86,-51.40,-54.03,-54.31
2021/01/19 02:22:28+0000,-37.37,-49.45,-33.95,-51.05,-54.35,-54.30
2021/01/19 02:23:20+0000,-36.57,-49.61,-34.13,-51.26,-54.45,-54.18
2021/01/19 02:24:12+0000,-37.84,-49.23,-34.46,-50.95,-54.45,-54.12
2021/01/19 02:25:04+0000,-37.94,-49.10,-34.17,-51.15,-54.18,-54.11
2021/01/19 02:25:56+0000,-37.74,-50.73,-33.91,-50.88,-53.95,-53.74
2021/01/19 02:26:48+0000,-37.97,-48.72,-34.64,-51.20,-53.84,-54.06
2021/01/19 02:27:40+0000,-38.52,-49.45,-34.06,-50.62,-54.64,-53.78
2021/01/19 02:28:32+0000,-38.27,-48.68,-33.79,-50.66,-54.31,-53.87
2021/01/19 02:29:24+0000,-36.99,-48.66,-33.62,-50.97,-54.31,-53.16
2021/01/19 02:30:17+0000,-37.83,-48.44,-34.31,-50.67,-53.69,-53.55
2021/01/19 02:31:17+0000,-36.60,-49.49,-34.18,-50.91,-53.84,-53.30
2021/01/19 02:32:09+0000,-37.56,-50.14,-33.47,-51.17,-53.99,-53.33
2021/01/19 02:33:01+0000,-38.07,-49.06,-34.14,-51.24,-54.16,-53.38
2021/01/19 02:33:53+0000,-36.94,-47.93,-34.15,-50.58,-53.79,-53.95
2021/01/19 02:34:45+0000,-38.42,-49.74,-33.78,-51.34,-54.15,-53.87
2021/01/19 02:35:37+0000,-38.25,-50.07,-33.51,-50.46,-54.35,-53.00
2021/01/19 02:36:29+0000,-38.16,-48.37,-34.01,-50.27,-53.89,-53.83
2021/01/19 02:37:22+0000,-36.81,-49.28,-33.84,-50.00,-54.05,-54.12
2021/01/19 02:38:14+0000,-37.74,-48.11,-34.73,-50.46,-54.00,-53.67
2021/01/19 02:39:06+0000,-36.91,-49.30,-34.05,-50.62,-53.72,-54.07
2021/01/19 02:39:58+0000,-37.37,-48.34,-34.21,-50.44,-53.94,-54.24
2021/01/19 02:40:50+0000,-37.71,-49.64,-34.00,-50.30,-53.93,-53.95
2021/01/19 02:41:50+0000,-36.89,-48.96,-33.43,-50.31,-54.72,-54.10
2021/01/19 02:42:42+0000,-36.42,-49.39,-34.26,-50.02,-54.27,-53.95
2021/01/19 02:43:35+0000,-36.40,-48.51,-34.45,-50.55,-54.18,-53.64
2021/01/19 02:44:27+0000,-37.98,-49.01,-34.33,-49.89,-53.80,-54.47
2021/01/19 02:45:19+0000,-38.27,-47.79,-34.05,-50.28,-53.59,-54.21
2021/01/19 02:46:11+0000,-37.12,-48.10,-34.08,-50.43,-53.53,-54.44
2021/01/19 02:47:03+0000,-38.12,-48.01,-34.55,-50.23,-53.50,-53.53
2021/01/19 02:47:55+0000,-38.28,-49.21,-34.72,-50.54,-54.02,-54.68
2021/01/19 02:48:47+0000,-38.54,-50.02,-34.15,-50.96,-53.97,-53.69
2021/01/19 02:49:39+0000,-37.33,-49.22,-34.63,-50.54,-53.77,-54.15
2021/01/19 02:50:32+0000,-37.11,-48.52,-34.41,-50.14,-53.81,-53.87
2021/01/19 02:51:32+0000,-37.70,-48.74,-33.76,-50.93,-53.70,-54.20
2021/01/19 02:52:24+0000,-37.37,-47.39,-33.96,-50.86,-53.39,-53.73
2021/01/19 02:53:16+0000,-38.25,-50.12,-34.50,-50.06,-53.67,-54.05
2021/01/19 02:54:08+0000,-36.96,-48.56,-35.10,-50.92,-53.60,-54.39
2021/01/19 02:55:00+0000,-38.31,-48.57,-35.10,-49.82,-54.02,-53.47
2021/01/19 02:55:52+0000,-36.69,-50.08,-34.57,-49.49,-53.93,-54.04
2021/01/19 02:56:45+0000,-37.80,-49.35,-34.53,-50.50,-53.96,-54.26
2021/01/19 02:57:37+0000,-37.54,-49.81,-33.80,-49.64,-53.88,-54.32
2021/01/19 02:58:29+0000,-38.55,-48.88,-34.43,-50.00,-53.85,-54.38
2021/01/19 02:59:21+0000,-38.34,-50.31,-34.14,-49.86,-54.22,-54.38
2021/01/19 03:00:13+0000,-37.37,-49.81,-33.99,-50.14,-53.96,-53.72
2021/01/19 03:01:13+0000,-37.39,-49.31,-34.05,-49.82,-52.76,-54.54
2021/01/19 03:02:05+0000,-35.12,-49.48,-33.99,-49.57,-54.02,-54.07
2021/01/19 03:02:57+0000,-36.18,-48.94,-34.08,-49.69,-53.30,-54.50
2021/01/19 03:03:49+0000,-35.84,-49.71,-34.39,-49.77,-53.99,-54.51
2021/01/19 03:04:41+0000,-37.43,-48.64,-34.71,-49.85,-53.72,-54.41
2021/01/19 03:05:33+0000,-36.72,-49.69,-34.35,-49.64,-54.04,-54.15
2021/01/19 03:06:25+0000,-36.13,-49.55,-34.82,-50.19,-53.48,-53.98
2021/01/19 03:07:17+0000,-35.42,-49.67,-35.74,-50.03,-54.02,-54.70
2021/01/19 03:08:09+0000,-35.79,-49.26,-35.33,-49.98,-53.41,-54.68
2021/01/19 03:09:01+0000,-37.42,-48.01,-35.57,-50.25,-53.32,-54.96
2021/01/19 03:09:54+0000,-36.54,-49.13,-35.84,-50.12,-53.64,-54.48
2021/01/19 03:10:46+0000,-35.68,-49.68,-35.75,-49.83,-53.44,-54.46
2021/01/19 03:11:56+0000,-36.97,-48.92,-35.75,-50.15,-54.03,-54.27
2021/01/19 03:12:48+0000,-36.09,-48.99,-36.20,-50.46,-54.29,-54.31
2021/01/19 03:13:40+0000,-35.13,-49.36,-35.86,-49.30,-53.67,-53.90
2021/01/19 03:14:32+0000,-35.58,-48.87,-35.08,-49.62,-53.73,-54.30
2021/01/19 03:15:24+0000,-36.72,-50.01,-35.54,-50.63,-52.95,-54.68
2021/01/19 03:16:16+0000,-36.60,-49.62,-35.97,-49.79,-53.20,-53.52
2021/01/19 03:17:08+0000,-34.51,-49.21,-35.80,-50.58,-53.69,-54.03
2021/01/19 03:18:00+0000,-37.30,-49.30,-35.24,-50.15,-53.78,-53.88
2021/01/19 03:18:52+0000,-36.47,-48.99,-35.42,-50.21,-53.86,-54.11
2021/01/19 03:19:45+0000,-37.20,-49.68,-35.14,-50.27,-54.16,-53.49
2021/01/19 03:20:37+0000,-35.17,-49.55,-35.29,-50.52,-53.72,-54.36
2021/01/19 03:21:37+0000,-35.52,-49.31,-35.59,-50.86,-53.57,-53.88
2021/01/19 03:22:29+0000,-37.14,-48.74,-35.26,-51.31,-53.51,-53.49
2021/01/19 03:23:21+0000,-37.26,-49.17,-35.43,-50.43,-53.70,-53.88
2021/01/19 03:24:13+0000,-35.51,-48.91,-34.94,-50.50,-53.55,-53.82
2021/01/19 03:25:05+0000,-35.83,-48.77,-35.54,-50.66,-54.12,-53.45
2021/01/19 03:25:57+0000,-35.46,-48.77,-35.24,-49.88,-53.62,-53.92
2021/01/19 03:26:49+0000,-37.35,-48.68,-34.45,-50.35,-54.14,-53.57
2021/01/19 03:27:41+0000,-36.06,-48.56,-34.63,-50.42,-53.73,-53.37
2021/01/19 03:28:33+0000,-35.95,-49.14,-35.00,-50.08,-54.10,-53.81
2021/01/19 03:29:25+0000,-37.02,-49.04,-33.99,-50.05,-53.95,-53.26
2021/01/19 03:30:18+0000,-36.91,-48.69,-34.45,-49.67,-53.34,-53.57
2021/01/19 03:31:18+0000,-35.21,-48.95,-35.01,-50.68,-53.63,-53.31
2021/01/19 03:32:10+0000,-35.07,-49.29,-34.94,-50.02,-53.18,-53.63
2021/01/19 03:33:02+0000,-36.74,-49.36,-34.12,-50.50,-54.40,-53.07
2021/01/19 03:33:54+0000,-36.48,-49.15,-34.84,-49.77,-54.24,-53.23
2021/01/19 03:34:46+0000,-35.01,-48.51,-34.63,-49.47,-54.24,-52.88
2021/01/19 03:35:38+0000,-36.17,-49.21,-34.48,-49.58,-53.28,-53.49
2021/01/19 03:36:30+0000,-36.99,-49.00,-35.01,-49.62,-53.87,-53.28
2021/01/19 03:37:22+0000,-35.53,-49.12,-35.13,-50.57,-53.64,-53.36
2021/01/19 03:38:14+0000,-35.78,-48.44,-35.45,-50.27,-53.36,-53.16
2021/01/19 03:39:06+0000,-36.36,-49.70,-35.38,-49.97,-53.64,-53.01
2021/01/19 03:39:59+0000,-35.37,-49.08,-35.04,-49.96,-54.07,-53.45
2021/01/19 03:40:51+0000,-36.43,-49.31,-34.78,-50.31,-54.32,-53.38
2021/01/19 03:41:50+0000,-35.76,-49.18,-35.36,-50.56,-53.94,-53.82
2021/01/19 03:42:42+0000,-35.34,-48.61,-35.33,-50.43,-53.88,-53.92
2021/01/19 03:43:34+0000,-35.36,-49.44,-34.59,-50.22,-54.29,-53.24
2021/01/19 03:44:26+0000,-36.77,-48.63,-34.56,-50.36,-53.77,-53.50
2021/01/19 03:45:18+0000,-36.57,-48.71,-35.21,-50.70,-52.87,-53.02
2021/01/19 03:46:10+0000,-35.41,-48.73,-35.21,-50.06,-53.83,-53.35
2021/01/19 03:47:03+0000,-36.39,-48.66,-34.64,-50.13,-54.26,-53.47
2021/01/19 03:47:55+0000,-35.27,-49.10,-34.97,-50.36,-54.29,-53.03
2021/01/19 03:48:47+0000,-36.55,-49.20,-34.99,-50.06,-54.00,-52.77
2021/01/19 03:49:39+0000,-36.28,-49.27,-35.15,-50.29,-53.82,-54.28
2021/01/19 03:50:32+0000,-37.19,-49.34,-34.73,-50.43,-53.68,-53.92
2021/01/19 03:51:32+0000,-36.90,-49.18,-35.11,-50.45,-53.10,-53.53
2021/01/19 03:52:24+0000,-35.96,-49.10,-34.71,-49.44,-53.81,-53.84
2021/01/19 03:53:16+0000,-37.60,-48.95,-35.56,-50.79,-53.18,-54.34
2021/01/19 03:54:08+0000,-35.66,-48.96,-35.04,-50.38,-53.55,-53.18
2021/01/19 03:55:00+0000,-37.47,-49.20,-35.48,-49.54,-53.65,-53.64
2021/01/19 03:55:52+0000,-36.79,-48.86,-34.63,-49.26,-54.05,-53.70
2021/01/19 03:56:44+0000,-35.79,-48.82,-34.22,-49.93,-54.24,-53.97
2021/01/19 03:57:36+0000,-36.03,-49.34,-35.10,-50.66,-53.69,-54.08
2021/01/19 03:58:28+0000,-36.44,-49.75,-34.72,-49.81,-53.76,-53.28
2021/01/19 03:59:20+0000,-36.61,-48.20,-35.20,-49.73,-53.03,-52.74
2021/01/19 04:00:12+0000,-35.04,-49.33,-34.76,-50.53,-53.05,-54.30
2021/01/19 04:01:13+0000,-36.14,-49.83,-35.26,-50.40,-53.68,-53.61
2021/01/19 04:02:05+0000,-35.45,-49.61,-34.60,-50.12,-53.46,-54.09
2021/01/19 04:02:57+0000,-34.81,-49.52,-35.47,-50.19,-52.87,-53.69
2021/01/19 04:03:49+0000,-35.90,-48.89,-35.38,-50.14,-53.61,-54.17
2021/01/19 04:04:41+0000,-34.86,-49.67,-35.24,-50.30,-52.76,-53.53
2021/01/19 04:05:33+0000,-35.83,-50.05,-35.30,-50.32,-54.20,-53.63
2021/01/19 04:06:25+0000,-36.67,-49.18,-34.87,-50.28,-53.88,-53.71
2021/01/19 04:07:17+0000,-36.78,-49.33,-34.91,-49.88,-53.19,-53.59
2021/01/19 04:08:09+0000,-36.97,-49.18,-35.58,-50.10,-53.78,-53.03
2021/01/19 04:09:01+0000,-35.86,-49.25,-35.29,-50.07,-53.10,-54.37
2021/01/19 04:09:54+0000,-36.54,-49.65,-34.94,-49.46,-54.50,-54.04
2021/01/19 04:10:46+0000,-36.11,-49.11,-35.19,-49.57,-54.01,-53.86
2021/01/19 04:11:46+0000,-36.90,-49.85,-35.55,-49.82,-53.82,-53.56
2021/01/19 04:12:38+0000,-36.51,-49.89,-35.49,-50.06,-54.06,-54.14
2021/01/19 04:13:30+0000,-38.13,-49.19,-35.53,-50.33,-53.66,-53.18
2021/01/19 04:14:22+0000,-36.68,-49.59,-35.11,-49.94,-53.94,-53.08
2021/01/19 04:15:14+0000,-37.79,-49.51,-35.48,-50.08,-53.88,-53.64
2021/01/19 04:16:06+0000,-36.28,-49.85,-34.91,-50.22,-54.66,-53.63
2021/01/19 04:16:58+0000,-37.02,-49.06,-35.39,-50.48,-53.56,-53.33
2021/01/19 04:17:50+0000,-37.30,-49.92,-35.63,-50.37,-54.06,-53.62
2021/01/19 04:18:42+0000,-35.38,-47.65,-35.09,-50.05,-53.70,-52.90
2021/01/19 04:19:34+0000,-36.75,-50.15,-35.11,-49.94,-53.97,-53.50
2021/01/19 04:20:27+0000,-37.03,-48.48,-35.16,-49.23,-53.74,-53.67
2021/01/19 04:21:26+0000,-36.45,-48.73,-34.50,-50.16,-53.26,-54.10
2021/01/19 04:22:18+0000,-37.26,-49.24,-35.36,-50.40,-54.20,-53.91
2021/01/19 04:23:10+0000,-36.37,-49.75,-35.24,-50.05,-53.86,-53.62
2021/01/19 04:24:02+0000,-36.60,-48.43,-35.51,-50.28,-54.60,-53.74
2021/01/19 04:24:54+0000,-36.73,-49.05,-35.26,-50.86,-53.95,-53.40
2021/01/19 04:25:46+0000,-37.26,-46.92,-35.23,-49.82,-53.85,-53.98
2021/01/19 04:26:38+0000,-35.57,-47.28,-35.30,-49.91,-53.22,-53.95
2021/01/19 04:27:30+0000,-37.08,-46.92,-35.95,-50.27,-53.90,-53.88
2021/01/19 04:28:22+0000,-36.63,-47.02,-35.27,-50.71,-54.42,-53.73
2021/01/19 04:29:14+0000,-36.67,-47.25,-35.52,-50.15,-53.60,-53.58
2021/01/19 04:30:07+0000,-36.06,-47.26,-35.03,-50.51,-54.61,-54.76
2021/01/19 04:31:05+0000,-36.38,-46.86,-35.39,-50.52,-54.10,-54.84
2021/01/19 04:31:57+0000,-38.03,-47.30,-35.35,-50.15,-54.01,-54.73
2021/01/19 04:32:49+0000,-37.22,-47.42,-34.95,-50.49,-53.86,-55.20
2021/01/19 04:33:41+0000,-35.63,-47.85,-35.20,-50.28,-54.22,-54.77
2021/01/19 04:34:33+0000,-34.78,-48.54,-34.98,-50.10,-54.36,-54.50
2021/01/19 04:35:25+0000,-36.95,-48.02,-35.07,-50.21,-53.74,-55.04
2021/01/19 04:36:17+0000,-37.58,-46.92,-34.74,-50.49,-54.00,-55.64
2021/01/19 04:37:09+0000,-36.91,-47.31,-35.64,-50.36,-54.36,-54.99
2021/01/19 04:38:01+0000,-36.79,-47.66,-35.92,-50.27,-54.12,-55.44
2021/01/19 04:38:53+0000,-37.11,-47.06,-35.30,-49.99,-53.79,-55.51
2021/01/19 04:39:46+0000,-36.67,-47.58,-34.88,-50.22,-54.00,-55.48
2021/01/19 04:40:38+0000,-36.52,-49.70,-34.50,-49.92,-54.01,-55.50
2021/01/19 04:41:35+0000,-36.43,-49.43,-34.75,-50.17,-53.20,-55.03
2021/01/19 04:42:27+0000,-36.26,-48.05,-34.80,-50.40,-53.76,-55.22
2021/01/19 04:43:20+0000,-37.66,-46.30,-35.35,-50.43,-54.00,-55.24
2021/01/19 04:44:12+0000,-36.85,-46.77,-35.18,-50.63,-54.25,-55.90
2021/01/19 04:45:04+0000,-36.42,-49.24,-34.79,-50.16,-53.56,-55.28